Elmira, NY

3:15 AM EDT on April 30, 2017 (GMT -0400)
Elmira-Corning Regional

Weather History for KELM - May, 2013

Change the Weather History Date:

Sunday, May 26, 2013

  Actual Average Record
Temperature  
Mean Temperature 53 °F -  
Max Temperature 64 °F 72 °F 88 °F (1991)
Min Temperature 39 °F 46 °F 33 °F (1956)
Degree Days  
Heating Degree Days 12    
Growing Degree Days 3 (Base 50)    
Moisture  
Dew Point 32 °F    
Average Humidity 50    
Maximum Humidity 77    
Minimum Humidity 26    
Precipitation  
Precipitation 0.00 in - - ()
Sea Level Pressure  
Sea Level Pressure 30.15 in    
Wind  
Wind Speed 9 mph (WNW)    
Max Wind Speed 17 mph    
Max Gust Speed 26 mph    
Visibility 10 miles    
Events      
Averages and records for this station are not official NWS values.
T = Trace of Precipitation, MM = Missing Value Source: NWS Daily Summary

Daily Weather History Graph

Daily Weather History Graph

Search for Another Location

Airport or City:

Trip Planner

Search our weather history database for the weather conditions in past years. The results will help you decide how hot, cold, wet, or windy it might be!

Date:

Astronomy

May. 26, 2013 Rise Set
Actual Time 5:37 AM EDT 8:32 PM EDT
Civil Twilight 5:04 AM EDT 9:05 PM EDT
Nautical Twilight 4:21 AM EDT 9:48 PM EDT
Astronomical Twilight 3:32 AM EDT 10:37 PM EDT
Moon 10:17 PM EDT (5/26) 7:04 AM EDT (5/26)
Length of Visible Light 16h 01m
Length of Day
14h 55m
Waning Gibbous, 97% of the Moon is Illuminated
May 26
Waning Gibbous
May 31
Last Quarter
Jun 8
New
Jun 16
First Quarter
Jun 23
Full

Hourly Weather History & Observations

Time (EDT) Temp. Windchill Dew Point Humidity Pressure Visibility Wind Dir Wind Speed Gust Speed Precip Events Conditions
12:53 AM 44.1 °F 40.1 °F 34.0 °F 68% 30.11 in 10.0 mi West 6.9 mph - N/A   Clear
1:53 AM 43.0 °F 37.7 °F 34.0 °F 71% 30.10 in 10.0 mi WNW 9.2 mph - N/A   Clear
2:53 AM 44.1 °F 39.5 °F 34.0 °F 68% 30.09 in 10.0 mi West 8.1 mph - N/A   Clear
3:53 AM 42.1 °F 37.7 °F 34.0 °F 73% 30.09 in 10.0 mi WSW 6.9 mph - N/A   Clear
4:53 AM 42.1 °F 37.1 °F 33.1 °F 70% 30.09 in 10.0 mi WSW 8.1 mph - N/A   Clear
5:53 AM 42.1 °F 40.2 °F 33.1 °F 70% 30.12 in 10.0 mi SW 3.5 mph - N/A   Clear
6:53 AM 45.0 °F 42.6 °F 34.0 °F 65% 30.12 in 10.0 mi West 4.6 mph - N/A   Clear
7:53 AM 48.0 °F - 34.0 °F 58% 30.14 in 10.0 mi WNW 5.8 mph - N/A   Clear
8:53 AM 52.0 °F - 34.0 °F 50% 30.14 in 10.0 mi NNW 8.1 mph 18.4 mph N/A   Clear
9:53 AM 55.9 °F - 33.1 °F 42% 30.14 in 10.0 mi North 12.7 mph 20.7 mph N/A   Partly Cloudy
10:53 AM 55.9 °F - 30.9 °F 39% 30.15 in 10.0 mi NW 9.2 mph 23.0 mph N/A   Scattered Clouds
11:53 AM 57.9 °F - 30.0 °F 35% 30.15 in 10.0 mi North 15.0 mph 25.3 mph N/A   Partly Cloudy
12:53 PM 60.1 °F - 28.9 °F 31% 30.16 in 10.0 mi North 17.3 mph 26.5 mph N/A   Partly Cloudy
1:53 PM 62.1 °F - 30.0 °F 30% 30.15 in 10.0 mi NW 15.0 mph 23.0 mph N/A   Partly Cloudy
2:53 PM 63.0 °F - 28.9 °F 28% 30.14 in 10.0 mi NNW 13.8 mph 24.2 mph N/A   Partly Cloudy
3:53 PM 64.0 °F - 28.9 °F 27% 30.15 in 10.0 mi NNW 13.8 mph 20.7 mph N/A   Clear
4:53 PM 64.0 °F - 28.0 °F 26% 30.15 in 10.0 mi NW 13.8 mph 23.0 mph N/A   Clear
5:53 PM 63.0 °F - 27.0 °F 26% 30.17 in 10.0 mi NNW 10.4 mph 18.4 mph N/A   Clear
6:53 PM 61.0 °F - 27.0 °F 27% 30.17 in 10.0 mi North 9.2 mph 18.4 mph N/A   Clear
7:53 PM 57.9 °F - 28.0 °F 32% 30.17 in 10.0 mi NNW 8.1 mph - N/A   Clear
8:53 PM 46.0 °F 43.1 °F 33.1 °F 61% 30.19 in 10.0 mi WNW 5.8 mph - N/A   Clear
9:53 PM 46.0 °F 43.1 °F 35.1 °F 66% 30.20 in 10.0 mi SW 5.8 mph - N/A   Clear
10:53 PM 44.1 °F 40.8 °F 34.0 °F 68% 30.21 in 10.0 mi SSW 5.8 mph - N/A   Clear
11:53 PM 39.9 °F 37.8 °F 33.1 °F 77% 30.23 in 10.0 mi WSW 3.5 mph - N/A   Clear